sat.trackr.live / text

‹ back to catalog

STARLINK-2355

NORAD 47895 · 2021-021AM

PAYLOAD ACTIVE UNKNOWN

§ Identity

Operator
Country
US
Launch date
2021-03-14
Launch site
AFETR
Launch vehicle
Mass (kg)
RCS (m²)

Purposes: comms

External: N2YO · Heavens-Above · Gunter

§ Orbital elements

Epoch: 2026-09-20T02:28:34.607712Z

Period
94.01 min
Inclination
53.1597°
Eccentricity
0.0001211
Mean motion
15.31695885 rev/d
Perigee alt
469.9 km
Apogee alt
471.6 km
Semi-major
6,848.9 km
B*
-4.9736e-5
RAAN
83.3907°
Arg perigee
91.9094°
Mean anomaly
268.2046°
Rev number
30,601

§ Raw data

STARLINK-23551 47895U 21021AM  26263.10317833 -.00001908  00000+0 -49736-4 0  99962 47895  53.1597  83.3907 0001211  91.9094 268.2046 15.31695885306011

JSON: /api/v1/satellites/47895 · /tle

For live sub-satellite position, see the globe view (requires WebGL).

§ Visibility from observer

Set your observer location to see the next 7 days of passes ≥ 10°. The values pass through the URL so the page stays shareable.

No JS? Fill the form by hand. The geolocation button needs JavaScript.